Simultaneous Nadir Overpasses (SNOs) Predictions

Prediction of SNOs between AQUA and GOES-15 Satellite Orbit:

Table of predicted SNOs for the next 14.0 days since TLE Epoch: 3/31/2012
Index Date Time (AQUA) AQUA Lat,Lon GOES-15 Lat,Lon Distance(km) Time Diff (sec)
1 04/01/2012 22:35:29 -0.08,-134.94 -0.06,-134.79 17.09 80
2 04/03/2012 22:23:19 0.51,-131.98 -0.06,-134.70 309.34 80
3 04/04/2012 10:44:35 0.59,-137.14 0.06,-134.65 282.48 80
4 04/06/2012 10:32:25 -0.03,-134.18 0.06,-134.56 43.13 80
5 04/08/2012 10:20:15 -0.66,-131.22 0.05,-134.45 368.02 80
6 04/08/2012 22:41:39 -0.47,-136.41 -0.05,-134.45 222.93 80
7 04/10/2012 22:29:28 0.13,-133.45 -0.05,-134.34 101.26 80
8 04/11/2012 10:50:44 0.95,-138.61 0.04,-134.29 490.67 80
9 04/12/2012 22:17:17 0.76,-130.49 -0.05,-134.22 425.29 80
10 04/13/2012 10:38:32 0.38,-135.63 0.04,-134.17 166.77 80




NCC Satellite Simultaneous Nadir Overpasses (SNOs) Prediction Service
